HOOPOE

Last updated on Sun Dec 23 2018 00:02:09 GMT+0000 (Greenwich Mean Time)

1 42718U 98067LZ 18356.15972234 .08813836 12573-4 44196-3 0 9994 2 42718 51.6191 91.1207 0006689 20.3338 341.4464 16.42542197 90809

Satellite not in orbit